owner,sensor,date,latitude,longitude,vertical_datum,sea_water_practical_salinity,qcFlag 
SCCF RECON,ioos:station:SCCF:11:1,2014-04-01T00:00:00Z,26.4679,-82.0631,1.416,32.08,1111122 
SCCF RECON,ioos:station:SCCF:11:1,2014-04-01T01:00:00Z,26.4679,-82.0631,1.349,32.08,1111122 
SCCF RECON,ioos:station:SCCF:11:1,2014-04-01T02:00:00Z,26.4679,-82.0631,1.4,31.97,1111122 
SCCF RECON,ioos:station:SCCF:11:1,2014-04-01T03:00:00Z,26.4679,-82.0631,1.58,32.05,1111122 
SCCF RECON,ioos:station:SCCF:11:1,2014-04-01T04:00:00Z,26.4679,-82.0631,1.781,31.5,1111122 
SCCF RECON,ioos:station:SCCF:11:1,2014-04-01T05:00:00Z,26.4679,-82.0631,1.93,31.92,1111122 
SCCF RECON,ioos:station:SCCF:11:1,2014-04-01T06:00:00Z,26.4679,-82.0631,2.039,31.8,1111122 
SCCF RECON,ioos:station:SCCF:11:1,2014-04-01T07:00:00Z,26.4679,-82.0631,2.098,31.81,1111122 
SCCF RECON,ioos:station:SCCF:11:1,2014-04-01T08:00:00Z,26.4679,-82.0631,2.06,32.14,1111122 
SCCF RECON,ioos:station:SCCF:11:1,2014-04-01T09:00:00Z,26.4679,-82.0631,1.93,31.65,1111122 
SCCF RECON,ioos:station:SCCF:11:1,2014-04-01T10:00:00Z,26.4679,-82.0631,1.812,31.83,1111122 
SCCF RECON,ioos:station:SCCF:11:1,2014-04-01T11:00:00Z,26.4679,-82.0631,1.73,31.85,1111122 
SCCF RECON,ioos:station:SCCF:11:1,2014-04-01T12:00:00Z,26.4679,-82.0631,1.651,31.81,1111122 
SCCF RECON,ioos:station:SCCF:11:1,2014-04-01T13:00:00Z,26.4679,-82.0631,1.623,31.87,1111122 
SCCF RECON,ioos:station:SCCF:11:1,2014-04-01T14:00:00Z,26.4679,-82.0631,1.711,31.85,1111122 
SCCF RECON,ioos:station:SCCF:11:1,2014-04-01T15:00:00Z,26.4679,-82.0631,1.89,31.54,1111122 
SCCF RECON,ioos:station:SCCF:11:1,2014-04-01T16:00:00Z,26.4679,-82.0631,2.046,31.42,1111122 
SCCF RECON,ioos:station:SCCF:11:1,2014-04-01T17:00:00Z,26.4679,-82.0631,2.151,31.75,1111122 
SCCF RECON,ioos:station:SCCF:11:1,2014-04-01T18:00:00Z,26.4679,-82.0631,2.203,32.21,1111122 
SCCF RECON,ioos:station:SCCF:11:1,2014-04-01T19:00:00Z,26.4679,-82.0631,2.2,32.12,1111122 
SCCF RECON,ioos:station:SCCF:11:1,2014-04-01T20:00:00Z,26.4679,-82.0631,2.135,31.6,1111122 
SCCF RECON,ioos:station:SCCF:11:1,2014-04-01T21:00:00Z,26.4679,-82.0631,1.974,31.57,1111122 
SCCF RECON,ioos:station:SCCF:11:1,2014-04-01T22:00:00Z,26.4679,-82.0631,1.804,31.71,1111122 
SCCF RECON,ioos:station:SCCF:11:1,2014-04-01T23:00:00Z,26.4679,-82.0631,1.682,31.74,1111122 
SCCF RECON,ioos:station:SCCF:11:1,2014-04-02T00:00:00Z,26.4679,-82.0631,1.56,31.79,1111122 
SCCF RECON,ioos:station:SCCF:11:1,2014-04-02T01:00:00Z,26.4679,-82.0631,1.452,31.84,1111122 
SCCF RECON,ioos:station:SCCF:11:1,2014-04-02T02:00:00Z,26.4679,-82.0631,1.399,31.83,1111122 
SCCF RECON,ioos:station:SCCF:11:1,2014-04-02T03:00:00Z,26.4679,-82.0631,1.48,31.8,1111122 
SCCF RECON,ioos:station:SCCF:11:1,2014-04-02T04:00:00Z,26.4679,-82.0631,1.671,31.8,1111122 
SCCF RECON,ioos:station:SCCF:11:1,2014-04-02T05:00:00Z,26.4679,-82.0631,1.84,31.73,1111122 
SCCF RECON,ioos:station:SCCF:11:1,2014-04-02T06:00:00Z,26.4679,-82.0631,1.957,31.83,1111122 
SCCF RECON,ioos:station:SCCF:11:1,2014-04-02T07:00:00Z,26.4679,-82.0631,2.03,31.89,1111122 
SCCF RECON,ioos:station:SCCF:11:1,2014-04-02T08:00:00Z,26.4679,-82.0631,2.06,32.14,1111122 
SCCF RECON,ioos:station:SCCF:11:1,2014-04-02T09:00:00Z,26.4679,-82.0631,2.016,32.02,1111122 
SCCF RECON,ioos:station:SCCF:11:1,2014-04-02T10:00:00Z,26.4679,-82.0631,1.901,31.66,1111122 
SCCF RECON,ioos:station:SCCF:11:1,2014-04-02T11:00:00Z,26.4679,-82.0631,1.82,31.75,1111122 
SCCF RECON,ioos:station:SCCF:11:1,2014-04-02T12:00:00Z,26.4679,-82.0631,1.741,31.76,1111122 
SCCF RECON,ioos:station:SCCF:11:1,2014-04-02T13:00:00Z,26.4679,-82.0631,1.684,31.77,1111122 
SCCF RECON,ioos:station:SCCF:11:1,2014-04-02T14:00:00Z,26.4679,-82.0631,1.697,31.77,1111122 
SCCF RECON,ioos:station:SCCF:11:1,2014-04-02T15:00:00Z,26.4679,-82.0631,1.812,31.86,1111122 
SCCF RECON,ioos:station:SCCF:11:1,2014-04-02T16:00:00Z,26.4679,-82.0631,1.973,31.9,1111122 
SCCF RECON,ioos:station:SCCF:11:1,2014-04-02T17:00:00Z,26.4679,-82.0631,2.101,32.05,1111122 
SCCF RECON,ioos:station:SCCF:11:1,2014-04-02T18:00:00Z,26.4679,-82.0631,2.173,32.21,1111122 
SCCF RECON,ioos:station:SCCF:11:1,2014-04-02T19:00:00Z,26.4679,-82.0631,2.199,32.18,1111122 
SCCF RECON,ioos:station:SCCF:11:1,2014-04-02T20:00:00Z,26.4679,-82.0631,2.14,32.08,1111122 
SCCF RECON,ioos:station:SCCF:11:1,2014-04-02T21:00:00Z,26.4679,-82.0631,2.017,31.81,1111122 
SCCF RECON,ioos:station:SCCF:11:1,2014-04-02T22:00:00Z,26.4679,-82.0631,1.87,31.83,1111122 
SCCF RECON,ioos:station:SCCF:11:1,2014-04-02T23:00:00Z,26.4679,-82.0631,1.736,31.85,1111122 
SCCF RECON,ioos:station:SCCF:11:1,2014-04-03T00:00:00Z,26.4679,-82.0631,1.61,31.88,1111122 
SCCF RECON,ioos:station:SCCF:11:1,2014-04-03T01:00:00Z,26.4679,-82.0631,1.499,31.9,1111122 
SCCF RECON,ioos:station:SCCF:11:1,2014-04-03T02:00:00Z,26.4679,-82.0631,1.4,31.89,1111122 
SCCF RECON,ioos:station:SCCF:11:1,2014-04-03T03:00:00Z,26.4679,-82.0631,1.37,31.91,1111122 
SCCF RECON,ioos:station:SCCF:11:1,2014-04-03T04:00:00Z,26.4679,-82.0631,1.463,31.9,1111122 
SCCF RECON,ioos:station:SCCF:11:1,2014-04-03T05:00:00Z,26.4679,-82.0631,1.64,31.93,1111122 
SCCF RECON,ioos:station:SCCF:11:1,2014-04-03T06:00:00Z,26.4679,-82.0631,1.77,31.16,1111122 
SCCF RECON,ioos:station:SCCF:11:1,2014-04-03T07:00:00Z,26.4679,-82.0631,1.85,31.87,1111122 
SCCF RECON,ioos:station:SCCF:11:1,2014-04-03T08:00:00Z,26.4679,-82.0631,1.891,31.92,1111122 
SCCF RECON,ioos:station:SCCF:11:1,2014-04-03T09:00:00Z,26.4679,-82.0631,1.91,31.89,1111122 
SCCF RECON,ioos:station:SCCF:11:1,2014-04-03T10:00:00Z,26.4679,-82.0631,1.86,32.0,1111122 
SCCF RECON,ioos:station:SCCF:11:1,2014-04-03T11:00:00Z,26.4679,-82.0631,1.78,31.59,1111122 
SCCF RECON,ioos:station:SCCF:11:1,2014-04-03T12:00:00Z,26.4679,-82.0631,1.75,31.57,1111122 
SCCF RECON,ioos:station:SCCF:11:1,2014-04-03T13:00:00Z,26.4679,-82.0631,1.73,31.6,1111122 
SCCF RECON,ioos:station:SCCF:11:1,2014-04-03T14:00:00Z,26.4679,-82.0631,1.72,31.63,1111122 
SCCF RECON,ioos:station:SCCF:11:1,2014-04-03T15:00:00Z,26.4679,-82.0631,1.77,31.88,1111122 
SCCF RECON,ioos:station:SCCF:11:1,2014-04-03T16:00:00Z,26.4679,-82.0631,1.86,32.27,1111122 
SCCF RECON,ioos:station:SCCF:11:1,2014-04-03T17:00:00Z,26.4679,-82.0631,1.96,32.38,1111122 
SCCF RECON,ioos:station:SCCF:11:1,2014-04-03T18:00:00Z,26.4679,-82.0631,2.07,32.57,1111122 
SCCF RECON,ioos:station:SCCF:11:1,2014-04-03T19:00:00Z,26.4679,-82.0631,2.12,33.18,1111122 
SCCF RECON,ioos:station:SCCF:11:1,2014-04-03T20:00:00Z,26.4679,-82.0631,2.15,33.09,1111122 
SCCF RECON,ioos:station:SCCF:11:1,2014-04-03T21:00:00Z,26.4679,-82.0631,2.1,33.45,1111122 
SCCF RECON,ioos:station:SCCF:11:1,2014-04-03T22:00:00Z,26.4679,-82.0631,1.982,32.17,1111122 
SCCF RECON,ioos:station:SCCF:11:1,2014-04-03T23:00:00Z,26.4679,-82.0631,1.856,32.01,1111122 
SCCF RECON,ioos:station:SCCF:11:1,2014-04-04T00:00:00Z,26.4679,-82.0631,1.723,32.03,1111122 
SCCF RECON,ioos:station:SCCF:11:1,2014-04-04T01:00:00Z,26.4679,-82.0631,1.6,32.02,1111122 
SCCF RECON,ioos:station:SCCF:11:1,2014-04-04T02:00:00Z,26.4679,-82.0631,1.5,32.02,1111122 
SCCF RECON,ioos:station:SCCF:11:1,2014-04-04T03:00:00Z,26.4679,-82.0631,1.43,31.99,1111122 
SCCF RECON,ioos:station:SCCF:11:1,2014-04-04T04:00:00Z,26.4679,-82.0631,1.431,32.0,1111122 
SCCF RECON,ioos:station:SCCF:11:1,2014-04-04T05:00:00Z,26.4679,-82.0631,1.564,32.5,1111122 
SCCF RECON,ioos:station:SCCF:11:1,2014-04-04T06:00:00Z,26.4679,-82.0631,1.71,32.39,1111122 
SCCF RECON,ioos:station:SCCF:11:1,2014-04-04T07:00:00Z,26.4679,-82.0631,1.8,32.31,1111122 
SCCF RECON,ioos:station:SCCF:11:1,2014-04-04T08:00:00Z,26.4679,-82.0631,1.86,32.34,1111122 
SCCF RECON,ioos:station:SCCF:11:1,2014-04-04T09:00:00Z,26.4679,-82.0631,1.92,32.57,1111122 
SCCF RECON,ioos:station:SCCF:11:1,2014-04-04T10:00:00Z,26.4679,-82.0631,1.94,32.68,1111122 
SCCF RECON,ioos:station:SCCF:11:1,2014-04-04T11:00:00Z,26.4679,-82.0631,1.89,32.52,1111122 
SCCF RECON,ioos:station:SCCF:11:1,2014-04-04T12:00:00Z,26.4679,-82.0631,1.842,32.18,1111122 
SCCF RECON,ioos:station:SCCF:11:1,2014-04-04T13:00:00Z,26.4679,-82.0631,1.82,32.18,1111122 
SCCF RECON,ioos:station:SCCF:11:1,2014-04-04T14:00:00Z,26.4679,-82.0631,1.81,32.32,1111122 
SCCF RECON,ioos:station:SCCF:11:1,2014-04-04T15:00:00Z,26.4679,-82.0631,1.81,32.66,1111122 
SCCF RECON,ioos:station:SCCF:11:1,2014-04-04T16:00:00Z,26.4679,-82.0631,1.86,32.68,1111122 
SCCF RECON,ioos:station:SCCF:11:1,2014-04-04T17:00:00Z,26.4679,-82.0631,1.94,33.5,1111122 
SCCF RECON,ioos:station:SCCF:11:1,2014-04-04T18:00:00Z,26.4679,-82.0631,2.03,33.58,1111122 
SCCF RECON,ioos:station:SCCF:11:1,2014-04-04T19:00:00Z,26.4679,-82.0631,2.1,33.74,1111122 
SCCF RECON,ioos:station:SCCF:11:1,2014-04-04T20:00:00Z,26.4679,-82.0631,2.14,34.08,1111122 
SCCF RECON,ioos:station:SCCF:11:1,2014-04-04T21:00:00Z,26.4679,-82.0631,2.1,34.03,1111122 
SCCF RECON,ioos:station:SCCF:11:1,2014-04-04T22:00:00Z,26.4679,-82.0631,2.011,32.81,1111122 
SCCF RECON,ioos:station:SCCF:11:1,2014-04-04T23:00:00Z,26.4679,-82.0631,1.91,32.53,1111122 
SCCF RECON,ioos:station:SCCF:11:1,2014-04-05T00:00:00Z,26.4679,-82.0631,1.81,32.41,1111122 
SCCF RECON,ioos:station:SCCF:11:1,2014-04-05T01:00:00Z,26.4679,-82.0631,1.7,32.48,1111122 
SCCF RECON,ioos:station:SCCF:11:1,2014-04-05T02:00:00Z,26.4679,-82.0631,1.6,32.43,1111122 
SCCF RECON,ioos:station:SCCF:11:1,2014-04-05T03:00:00Z,26.4679,-82.0631,1.51,32.4,1111122 
SCCF RECON,ioos:station:SCCF:11:1,2014-04-05T04:00:00Z,26.4679,-82.0631,1.44,32.42,1111122 
SCCF RECON,ioos:station:SCCF:11:1,2014-04-05T05:00:00Z,26.4679,-82.0631,1.434,32.38,1111122 
SCCF RECON,ioos:station:SCCF:11:1,2014-04-05T06:00:00Z,26.4679,-82.0631,1.54,33.2,1111122 
SCCF RECON,ioos:station:SCCF:11:1,2014-04-05T07:00:00Z,26.4679,-82.0631,1.68,33.27,1111122 
SCCF RECON,ioos:station:SCCF:11:1,2014-04-05T08:00:00Z,26.4679,-82.0631,1.78,32.87,1111122 
SCCF RECON,ioos:station:SCCF:11:1,2014-04-05T09:00:00Z,26.4679,-82.0631,1.84,33.02,1111122 
SCCF RECON,ioos:station:SCCF:11:1,2014-04-05T10:00:00Z,26.4679,-82.0631,1.9,32.96,1111122 
SCCF RECON,ioos:station:SCCF:11:1,2014-04-05T11:00:00Z,26.4679,-82.0631,1.902,32.81,1111122 
SCCF RECON,ioos:station:SCCF:11:1,2014-04-05T12:00:00Z,26.4679,-82.0631,1.88,32.92,1111122 
SCCF RECON,ioos:station:SCCF:11:1,2014-04-05T13:00:00Z,26.4679,-82.0631,1.82,32.7,1111122 
SCCF RECON,ioos:station:SCCF:11:1,2014-04-05T14:00:00Z,26.4679,-82.0631,1.79,32.65,1111122 
SCCF RECON,ioos:station:SCCF:11:1,2014-04-05T15:00:00Z,26.4679,-82.0631,1.79,32.75,1111122 
SCCF RECON,ioos:station:SCCF:11:1,2014-04-05T16:00:00Z,26.4679,-82.0631,1.82,32.71,1111122 
SCCF RECON,ioos:station:SCCF:11:1,2014-04-05T17:00:00Z,26.4679,-82.0631,1.89,32.76,1111122 
SCCF RECON,ioos:station:SCCF:11:1,2014-04-05T18:00:00Z,26.4679,-82.0631,1.92,32.76,1111122 
SCCF RECON,ioos:station:SCCF:11:1,2014-04-05T19:00:00Z,26.4679,-82.0631,1.98,32.7,1111122 
SCCF RECON,ioos:station:SCCF:11:1,2014-04-05T20:00:00Z,26.4679,-82.0631,2.05,32.37,1111122 
SCCF RECON,ioos:station:SCCF:11:1,2014-04-05T21:00:00Z,26.4679,-82.0631,2.057,32.84,1111122 
SCCF RECON,ioos:station:SCCF:11:1,2014-04-05T22:00:00Z,26.4679,-82.0631,2.01,32.56,1111122 
SCCF RECON,ioos:station:SCCF:11:1,2014-04-05T23:00:00Z,26.4679,-82.0631,1.94,32.55,1111122 
SCCF RECON,ioos:station:SCCF:11:1,2014-04-06T00:00:00Z,26.4679,-82.0631,1.86,32.55,1111122 
SCCF RECON,ioos:station:SCCF:11:1,2014-04-06T01:00:00Z,26.4679,-82.0631,1.75,32.57,1111122 
SCCF RECON,ioos:station:SCCF:11:1,2014-04-06T02:00:00Z,26.4679,-82.0631,1.66,32.58,1111122 
SCCF RECON,ioos:station:SCCF:11:1,2014-04-06T03:00:00Z,26.4679,-82.0631,1.571,32.56,1111122 
SCCF RECON,ioos:station:SCCF:11:1,2014-04-06T04:00:00Z,26.4679,-82.0631,1.488,32.6,1111122 
SCCF RECON,ioos:station:SCCF:11:1,2014-04-06T05:00:00Z,26.4679,-82.0631,1.45,32.56,1111122 
SCCF RECON,ioos:station:SCCF:11:1,2014-04-06T06:00:00Z,26.4679,-82.0631,1.46,32.31,1111122 
SCCF RECON,ioos:station:SCCF:11:1,2014-04-06T07:00:00Z,26.4679,-82.0631,1.54,32.58,1111122 
SCCF RECON,ioos:station:SCCF:11:1,2014-04-06T08:00:00Z,26.4679,-82.0631,1.64,32.77,1111122 
SCCF RECON,ioos:station:SCCF:11:1,2014-04-06T09:00:00Z,26.4679,-82.0631,1.71,31.44,1111122 
SCCF RECON,ioos:station:SCCF:11:1,2014-04-06T10:00:00Z,26.4679,-82.0631,1.78,31.49,1111122 
SCCF RECON,ioos:station:SCCF:11:1,2014-04-06T11:00:00Z,26.4679,-82.0631,1.82,31.82,1111122 
SCCF RECON,ioos:station:SCCF:11:1,2014-04-06T12:00:00Z,26.4679,-82.0631,1.858,31.82,1111122 
SCCF RECON,ioos:station:SCCF:11:1,2014-04-06T13:00:00Z,26.4679,-82.0631,1.85,31.87,1111122 
SCCF RECON,ioos:station:SCCF:11:1,2014-04-06T14:00:00Z,26.4679,-82.0631,1.82,31.94,1111122 
SCCF RECON,ioos:station:SCCF:11:1,2014-04-06T15:00:00Z,26.4679,-82.0631,1.81,31.93,1111122 
SCCF RECON,ioos:station:SCCF:11:1,2014-04-06T16:00:00Z,26.4679,-82.0631,1.8,32.28,1111122 
SCCF RECON,ioos:station:SCCF:11:1,2014-04-06T17:00:00Z,26.4679,-82.0631,1.801,32.28,1111122 
SCCF RECON,ioos:station:SCCF:11:1,2014-04-06T18:00:00Z,26.4679,-82.0631,1.831,32.63,1111122 
SCCF RECON,ioos:station:SCCF:11:1,2014-04-06T19:00:00Z,26.4679,-82.0631,1.882,33.44,1111122 
SCCF RECON,ioos:station:SCCF:11:1,2014-04-06T20:00:00Z,26.4679,-82.0631,1.95,33.6,1111122 
SCCF RECON,ioos:station:SCCF:11:1,2014-04-06T21:00:00Z,26.4679,-82.0631,1.96,33.6,1111122 
SCCF RECON,ioos:station:SCCF:11:1,2014-04-06T22:00:00Z,26.4679,-82.0631,1.97,33.6,1111122 
SCCF RECON,ioos:station:SCCF:11:1,2014-04-06T23:00:00Z,26.4679,-82.0631,1.96,33.89,1111122 
SCCF RECON,ioos:station:SCCF:11:1,2014-04-07T00:00:00Z,26.4679,-82.0631,1.92,33.78,1111122 
SCCF RECON,ioos:station:SCCF:11:1,2014-04-07T01:00:00Z,26.4679,-82.0631,1.85,32.66,1111122 
SCCF RECON,ioos:station:SCCF:11:1,2014-04-07T02:00:00Z,26.4679,-82.0631,1.77,32.54,1111122 
SCCF RECON,ioos:station:SCCF:11:1,2014-04-07T03:00:00Z,26.4679,-82.0631,1.68,32.51,1111122 
SCCF RECON,ioos:station:SCCF:11:1,2014-04-07T04:00:00Z,26.4679,-82.0631,1.598,32.52,1111122 
SCCF RECON,ioos:station:SCCF:11:1,2014-04-07T05:00:00Z,26.4679,-82.0631,1.52,32.58,1111122 
SCCF RECON,ioos:station:SCCF:11:1,2014-04-07T06:00:00Z,26.4679,-82.0631,1.49,32.55,1111122 
SCCF RECON,ioos:station:SCCF:11:1,2014-04-07T07:00:00Z,26.4679,-82.0631,1.53,32.73,1111122 
SCCF RECON,ioos:station:SCCF:11:1,2014-04-07T08:00:00Z,26.4679,-82.0631,1.61,33.35,1111122 
SCCF RECON,ioos:station:SCCF:11:1,2014-04-07T09:00:00Z,26.4679,-82.0631,1.69,33.22,1111122 
SCCF RECON,ioos:station:SCCF:11:1,2014-04-07T10:00:00Z,26.4679,-82.0631,1.762,33.34,1111122 
SCCF RECON,ioos:station:SCCF:11:1,2014-04-07T11:00:00Z,26.4679,-82.0631,1.829,33.42,1111122 
SCCF RECON,ioos:station:SCCF:11:1,2014-04-07T12:00:00Z,26.4679,-82.0631,1.89,33.6,1111122 
SCCF RECON,ioos:station:SCCF:11:1,2014-04-07T13:00:00Z,26.4679,-82.0631,1.94,33.63,1111122 
SCCF RECON,ioos:station:SCCF:11:1,2014-04-07T14:00:00Z,26.4679,-82.0631,1.955,33.78,1111122 
SCCF RECON,ioos:station:SCCF:11:1,2014-04-07T15:00:00Z,26.4679,-82.0631,1.926,33.75,1111122 
SCCF RECON,ioos:station:SCCF:11:1,2014-04-07T16:00:00Z,26.4679,-82.0631,1.881,33.77,1111122 
SCCF RECON,ioos:station:SCCF:11:1,2014-04-07T17:00:00Z,26.4679,-82.0631,1.86,33.79,1111122 
SCCF RECON,ioos:station:SCCF:11:1,2014-04-07T18:00:00Z,26.4679,-82.0631,1.87,33.86,1111122 
SCCF RECON,ioos:station:SCCF:11:1,2014-04-07T19:00:00Z,26.4679,-82.0631,1.863,33.87,1111122 
SCCF RECON,ioos:station:SCCF:11:1,2014-04-07T20:00:00Z,26.4679,-82.0631,1.85,33.9,1111122 
SCCF RECON,ioos:station:SCCF:11:1,2014-04-07T21:00:00Z,26.4679,-82.0631,1.897,33.94,1111122 
SCCF RECON,ioos:station:SCCF:11:1,2014-04-07T22:00:00Z,26.4679,-82.0631,1.942,33.96,1111122 
SCCF RECON,ioos:station:SCCF:11:1,2014-04-07T23:00:00Z,26.4679,-82.0631,1.97,33.95,1111122 
SCCF RECON,ioos:station:SCCF:11:1,2014-04-08T00:00:00Z,26.4679,-82.0631,1.941,33.96,1111122 
SCCF RECON,ioos:station:SCCF:11:1,2014-04-08T01:00:00Z,26.4679,-82.0631,1.91,33.9,1111122 
SCCF RECON,ioos:station:SCCF:11:1,2014-04-08T02:00:00Z,26.4679,-82.0631,1.84,33.47,1111122 
SCCF RECON,ioos:station:SCCF:11:1,2014-04-08T03:00:00Z,26.4679,-82.0631,1.739,33.21,1111122 
SCCF RECON,ioos:station:SCCF:11:1,2014-04-08T04:00:00Z,26.4679,-82.0631,1.655,33.3,1111122 
SCCF RECON,ioos:station:SCCF:11:1,2014-04-08T05:00:00Z,26.4679,-82.0631,1.61,33.25,1111122 
SCCF RECON,ioos:station:SCCF:11:1,2014-04-08T06:00:00Z,26.4679,-82.0631,1.54,33.26,1111122 
SCCF RECON,ioos:station:SCCF:11:1,2014-04-08T07:00:00Z,26.4679,-82.0631,1.49,33.13,1111122 
SCCF RECON,ioos:station:SCCF:11:1,2014-04-08T08:00:00Z,26.4679,-82.0631,1.51,33.92,1111122 
SCCF RECON,ioos:station:SCCF:11:1,2014-04-08T09:00:00Z,26.4679,-82.0631,1.58,33.79,1111122 
SCCF RECON,ioos:station:SCCF:11:1,2014-04-08T10:00:00Z,26.4679,-82.0631,1.67,33.87,1111122 
SCCF RECON,ioos:station:SCCF:11:1,2014-04-08T11:00:00Z,26.4679,-82.0631,1.786,33.9,1111122 
SCCF RECON,ioos:station:SCCF:11:1,2014-04-08T12:00:00Z,26.4679,-82.0631,1.894,33.94,1111122 
SCCF RECON,ioos:station:SCCF:11:1,2014-04-08T13:00:00Z,26.4679,-82.0631,1.967,33.93,1111122 
SCCF RECON,ioos:station:SCCF:11:1,2014-04-08T14:00:00Z,26.4679,-82.0631,2.02,33.94,1111122 
SCCF RECON,ioos:station:SCCF:11:1,2014-04-08T15:00:00Z,26.4679,-82.0631,2.0,33.92,1111122 
SCCF RECON,ioos:station:SCCF:11:1,2014-04-08T16:00:00Z,26.4679,-82.0631,2.0,33.93,1111122 
SCCF RECON,ioos:station:SCCF:11:1,2014-04-08T17:00:00Z,26.4679,-82.0631,1.977,33.9,1111122 
SCCF RECON,ioos:station:SCCF:11:1,2014-04-08T18:00:00Z,26.4679,-82.0631,2.04,33.85,1111122 
SCCF RECON,ioos:station:SCCF:11:1,2014-04-08T19:00:00Z,26.4679,-82.0631,1.947,33.81,1111122 
SCCF RECON,ioos:station:SCCF:11:1,2014-04-08T20:00:00Z,26.4679,-82.0631,1.877,33.45,1111122 
SCCF RECON,ioos:station:SCCF:11:1,2014-04-08T21:00:00Z,26.4679,-82.0631,1.963,33.44,1111122 
SCCF RECON,ioos:station:SCCF:11:1,2014-04-08T22:00:00Z,26.4679,-82.0631,1.929,33.45,1111122 
SCCF RECON,ioos:station:SCCF:11:1,2014-04-08T23:00:00Z,26.4679,-82.0631,1.87,33.37,1111122 
SCCF RECON,ioos:station:SCCF:11:1,2014-04-09T00:00:00Z,26.4679,-82.0631,1.86,33.23,1111122 
SCCF RECON,ioos:station:SCCF:11:1,2014-04-09T01:00:00Z,26.4679,-82.0631,1.923,33.28,1111122 
SCCF RECON,ioos:station:SCCF:11:1,2014-04-09T02:00:00Z,26.4679,-82.0631,1.996,33.38,1111122 
SCCF RECON,ioos:station:SCCF:11:1,2014-04-09T03:00:00Z,26.4679,-82.0631,1.979,33.36,1111122 
SCCF RECON,ioos:station:SCCF:11:1,2014-04-09T04:00:00Z,26.4679,-82.0631,1.901,33.16,1111122 
SCCF RECON,ioos:station:SCCF:11:1,2014-04-09T05:00:00Z,26.4679,-82.0631,1.792,33.18,1111122 
SCCF RECON,ioos:station:SCCF:11:1,2014-04-09T06:00:00Z,26.4679,-82.0631,1.643,33.1,1111122 
SCCF RECON,ioos:station:SCCF:11:1,2014-04-09T07:00:00Z,26.4679,-82.0631,1.531,33.04,1111122 
SCCF RECON,ioos:station:SCCF:11:1,2014-04-09T08:00:00Z,26.4679,-82.0631,1.514,32.98,1111122 
SCCF RECON,ioos:station:SCCF:11:1,2014-04-09T09:00:00Z,26.4679,-82.0631,1.52,33.46,1111122 
SCCF RECON,ioos:station:SCCF:11:1,2014-04-09T10:00:00Z,26.4679,-82.0631,1.567,33.47,1111122 
SCCF RECON,ioos:station:SCCF:11:1,2014-04-09T11:00:00Z,26.4679,-82.0631,1.679,33.46,1111122 
SCCF RECON,ioos:station:SCCF:11:1,2014-04-09T12:00:00Z,26.4679,-82.0631,1.749,33.44,1111122 
SCCF RECON,ioos:station:SCCF:11:1,2014-04-09T13:00:00Z,26.4679,-82.0631,1.818,33.47,1111122 
SCCF RECON,ioos:station:SCCF:11:1,2014-04-09T14:00:00Z,26.4679,-82.0631,1.82,33.42,1111122 
SCCF RECON,ioos:station:SCCF:11:1,2014-04-09T15:00:00Z,26.4679,-82.0631,1.821,33.15,1111122 
SCCF RECON,ioos:station:SCCF:11:1,2014-04-09T16:00:00Z,26.4679,-82.0631,1.766,33.4,1111122 
SCCF RECON,ioos:station:SCCF:11:1,2014-04-09T17:00:00Z,26.4679,-82.0631,1.69,33.22,1111122 
SCCF RECON,ioos:station:SCCF:11:1,2014-04-09T18:00:00Z,26.4679,-82.0631,1.614,33.2,1111122 
SCCF RECON,ioos:station:SCCF:11:1,2014-04-09T19:00:00Z,26.4679,-82.0631,1.539,33.17,1111122 
SCCF RECON,ioos:station:SCCF:11:1,2014-04-09T20:00:00Z,26.4679,-82.0631,1.508,33.12,1111122 
SCCF RECON,ioos:station:SCCF:11:1,2014-04-09T21:00:00Z,26.4679,-82.0631,1.508,33.2,1111122 
SCCF RECON,ioos:station:SCCF:11:1,2014-04-09T22:00:00Z,26.4679,-82.0631,1.53,33.28,1111122 
SCCF RECON,ioos:station:SCCF:11:1,2014-04-09T23:00:00Z,26.4679,-82.0631,1.58,33.18,1111122 
SCCF RECON,ioos:station:SCCF:11:1,2014-04-10T00:00:00Z,26.4679,-82.0631,1.657,32.87,1111122 
SCCF RECON,ioos:station:SCCF:11:1,2014-04-10T01:00:00Z,26.4679,-82.0631,1.71,32.84,1111122 
SCCF RECON,ioos:station:SCCF:11:1,2014-04-10T02:00:00Z,26.4679,-82.0631,1.73,32.86,1111122 
SCCF RECON,ioos:station:SCCF:11:1,2014-04-10T03:00:00Z,26.4679,-82.0631,1.75,32.91,1111122 
SCCF RECON,ioos:station:SCCF:11:1,2014-04-10T04:00:00Z,26.4679,-82.0631,1.73,33.0,1111122 
SCCF RECON,ioos:station:SCCF:11:1,2014-04-10T05:00:00Z,26.4679,-82.0631,1.66,33.07,1111122 
SCCF RECON,ioos:station:SCCF:11:1,2014-04-10T06:00:00Z,26.4679,-82.0631,1.57,33.18,1111122 
SCCF RECON,ioos:station:SCCF:11:1,2014-04-10T07:00:00Z,26.4679,-82.0631,1.488,33.18,1111122 
SCCF RECON,ioos:station:SCCF:11:1,2014-04-10T08:00:00Z,26.4679,-82.0631,1.419,33.12,1111122 
SCCF RECON,ioos:station:SCCF:11:1,2014-04-10T09:00:00Z,26.4679,-82.0631,1.38,33.1,1111122 
SCCF RECON,ioos:station:SCCF:11:1,2014-04-10T10:00:00Z,26.4679,-82.0631,1.41,33.11,1111122 
SCCF RECON,ioos:station:SCCF:11:1,2014-04-10T11:00:00Z,26.4679,-82.0631,1.52,33.15,1111122 
SCCF RECON,ioos:station:SCCF:11:1,2014-04-10T12:00:00Z,26.4679,-82.0631,1.643,33.11,1111122 
SCCF RECON,ioos:station:SCCF:11:1,2014-04-10T13:00:00Z,26.4679,-82.0631,1.726,32.97,1111122 
SCCF RECON,ioos:station:SCCF:11:1,2014-04-10T14:00:00Z,26.4679,-82.0631,1.81,33.01,1111122 
SCCF RECON,ioos:station:SCCF:11:1,2014-04-10T15:00:00Z,26.4679,-82.0631,1.86,31.8,1111122 
SCCF RECON,ioos:station:SCCF:11:1,2014-04-10T16:00:00Z,26.4679,-82.0631,1.88,31.46,1111122 
SCCF RECON,ioos:station:SCCF:11:1,2014-04-10T18:00:00Z,26.4679,-82.0631,1.75,32.59,1111122 
SCCF RECON,ioos:station:SCCF:11:1,2014-04-10T19:00:00Z,26.4679,-82.0631,1.68,32.87,1111122 
SCCF RECON,ioos:station:SCCF:11:1,2014-04-10T20:00:00Z,26.4679,-82.0631,1.62,32.89,1111122 
SCCF RECON,ioos:station:SCCF:11:1,2014-04-10T21:00:00Z,26.4679,-82.0631,1.58,32.89,1111122 
SCCF RECON,ioos:station:SCCF:11:1,2014-04-10T22:00:00Z,26.4679,-82.0631,1.6,32.99,1111122 
SCCF RECON,ioos:station:SCCF:11:1,2014-04-10T23:00:00Z,26.4679,-82.0631,1.68,32.34,1111122 
SCCF RECON,ioos:station:SCCF:11:1,2014-04-11T00:00:00Z,26.4679,-82.0631,1.77,32.06,1111122 
SCCF RECON,ioos:station:SCCF:11:1,2014-04-11T01:00:00Z,26.4679,-82.0631,1.86,31.56,1111122 
SCCF RECON,ioos:station:SCCF:11:1,2014-04-11T02:00:00Z,26.4679,-82.0631,1.92,31.63,1111122 
SCCF RECON,ioos:station:SCCF:11:1,2014-04-11T03:00:00Z,26.4679,-82.0631,1.95,31.65,1111122 
SCCF RECON,ioos:station:SCCF:11:1,2014-04-11T04:00:00Z,26.4679,-82.0631,1.94,31.76,1111122 
SCCF RECON,ioos:station:SCCF:11:1,2014-04-11T05:00:00Z,26.4679,-82.0631,1.86,31.65,1111122 
SCCF RECON,ioos:station:SCCF:11:1,2014-04-11T06:00:00Z,26.4679,-82.0631,1.76,32.07,1111122 
SCCF RECON,ioos:station:SCCF:11:1,2014-04-11T07:00:00Z,26.4679,-82.0631,1.644,32.37,1111122 
SCCF RECON,ioos:station:SCCF:11:1,2014-04-11T08:00:00Z,26.4679,-82.0631,1.536,32.71,1111122 
SCCF RECON,ioos:station:SCCF:11:1,2014-04-11T09:00:00Z,26.4679,-82.0631,1.46,32.67,1111122 
SCCF RECON,ioos:station:SCCF:11:1,2014-04-11T10:00:00Z,26.4679,-82.0631,1.46,32.27,1111122 
SCCF RECON,ioos:station:SCCF:11:1,2014-04-11T11:00:00Z,26.4679,-82.0631,1.57,32.33,1111122 
SCCF RECON,ioos:station:SCCF:11:1,2014-04-11T12:00:00Z,26.4679,-82.0631,1.74,32.1,1111122 
SCCF RECON,ioos:station:SCCF:11:1,2014-04-11T13:00:00Z,26.4679,-82.0631,1.87,32.09,1111122 
SCCF RECON,ioos:station:SCCF:11:1,2014-04-11T14:00:00Z,26.4679,-82.0631,1.97,32.04,1111122 
SCCF RECON,ioos:station:SCCF:11:1,2014-04-11T15:00:00Z,26.4679,-82.0631,2.049,32.06,1111122 
SCCF RECON,ioos:station:SCCF:11:1,2014-04-11T16:00:00Z,26.4679,-82.0631,2.059,32.1,1111122 
SCCF RECON,ioos:station:SCCF:11:1,2014-04-11T17:00:00Z,26.4679,-82.0631,2.0,32.05,1111122 
SCCF RECON,ioos:station:SCCF:11:1,2014-04-11T18:00:00Z,26.4679,-82.0631,1.88,32.07,1111122 
SCCF RECON,ioos:station:SCCF:11:1,2014-04-11T19:00:00Z,26.4679,-82.0631,1.78,32.3,1111122 